Location: Albany
(35.0170°S, 117.8920°E)
Time: 05:36:19
(UTC+08:00)

Tiros 1 - Visible Passes

Search period start: 20 January 2021 00:00
Search period end: 30 January 2021 00:00
Orbit: 630 x 663 km, 48.4° (Epoch: 18 January)

Date Brightness Start Highest point End Pass type
(mag) Time Alt. Az. Time Alt. Az. Time Alt. Az.
22 Jan 9.6 04:41:14 10° NNE 04:43:46 14° NE 04:46:19 10° E visible
24 Jan 9.6 03:51:34 10° NNE 03:53:38 13° NE 03:55:45 10° E visible
25 Jan 8.5 04:15:06 10° NNW 04:19:15 32° NE 04:23:31 10° ESE visible
26 Jan 9.6 03:02:33 11° NE 03:03:31 11° NE 03:04:59 10° ENE visible
26 Jan 7.3 04:40:18 10° NW 04:45:03 76° NE 04:49:54 10° SE visible
27 Jan 8.5 03:27:36 24° NNE 03:29:05 29° NE 03:33:14 10° ESE visible
28 Jan 7.3 03:52:35 30° NW 03:54:53 70° NE 03:59:42 10° ESE visible
29 Jan 8.8 02:39:51 25° ENE 02:39:51 25° ENE 02:42:56 10° ESE visible
29 Jan 7.6 04:17:30 18° WNW 04:20:55 55° SSW 04:25:41 10° SE visible
